Regional Weather Roundup
Issued by NWS

Home | Current Version | Previous Version | Graphics & Text | Print | Product List | Glossary On
Versions: 1 2 3 4 5 6 7 8 9 10 11 12 13 14 15 16 17 18 19 20 21 22 23 24 25 26 27 28 29 30 31 32 33 34 35 36 37 38 39 40 41 42 43 44 45 46 47 48 49 50
000
ASUS45 KSLC 131810
RWRUT

UTAH REGIONAL WEATHER ROUNDUP
NATIONAL WEATHER SERVICE SALT LAKE CITY UT
1100 AM MST SAT FEB 13 2016

UTZ001>011-023>025-131900-

NORTHERN UTAH

CITY           SKY/WX    TMP DP  RH WIND       PRES   REMARKS
BRIGHAM CITY   CLOUDY    27  26  94 SW3       30.37S
HILL AFB       FOG       28  28 100 W5        30.34R VSB 1   WCI  23
LOGAN          CLOUDY    24  24 100 SW3       30.33S FOG
OGDEN          CLOUDY    31  27  85 NW3       30.35R FOG
PROVO AIRPORT  FOG       25  21  86 CALM      30.34R VSB 1/2
SALT LAKE CITY CLOUDY    31  28  89 NW3       30.35R FOG
VERNAL         CLOUDY    29  23  78 CALM      30.26F HAZE
WENDOVER       CLOUDY    30  27  86 S5        30.35S WCI  25
HEBER CITY     PTSUNNY   30  19  64 CALM      30.27S
WEST JORDAN    PTSUNNY   30  28  93 CALM      30.34R

$$

UTZ012>022-026-027-131900-

SOUTHERN/CENTRAL UTAH

CITY           SKY/WX    TMP DP  RH WIND       PRES   REMARKS
BLANDING       SUNNY     43  27  53 CALM      30.35F
BRYCE CANYON   SUNNY     32  20  61 CALM      30.32S
CEDAR CITY     MOSUNNY   42  21  43 NE7       30.26R
DELTA          CLOUDY    20  19  96 CALM      30.33R
HANKSVILLE     PTSUNNY   37  32  81 CALM      30.32S
MILFORD        MOSUNNY   18  16  92 CALM      30.29S FOG
MOAB/CYNLANDS  PTSUNNY   38  32  79 CALM      30.27F
PRICE          SUNNY     39  26  59 S3        30.26F
ST GEORGE      MOCLDY    48  27  43 W3        30.26F
KANAB          SUNNY     57  27  30 SE3       30.29S

$$

REGIONAL REPORTS     COLORADO/ARIZONA

CITY           SKY/WX    TMP DP  RH WIND       PRES   REMARKS
CRAIG, CO      CLOUDY    24  18  77 W3        30.24F
GRAND JUNCTION CLOUDY    38  28  67 CALM      30.27F
RIFLE          CLOUDY    31  21  66 N3        30.27F
MONTROSE       CLOUDY    40  27  59 SE6       30.26F
CORTEZ         SUNNY     49  25  39 CALM      30.28F
PAGE, AZ       SUNNY     46  32  58 NW3       30.27S
GRAND CANYON   SUNNY     60  15  17 SW7       30.30F
KINGMAN        SUNNY     62  23  22 N6        30.19F
FLAGSTAFF      SUNNY     55  14  19 SW8       30.32S

$$

REGIONAL REPORTS    NEVADA/IDAHO/WYOMING

CITY           SKY/WX    TMP DP  RH WIND       PRES   REMARKS
LAS VEGAS, NV  MOSUNNY   61  23  23 CALM      30.15F
ELY            PTSUNNY   32  22  66 S13       30.33R WCI  22
ELKO           SUNNY     27  19  72 SE5       30.36R WCI  22
POCATELLO, ID  CLOUDY    40  31  70 SW23G40   30.24R WCI  30
BURLEY         LGT RAIN  42  34  73 W14       30.29R
EVANSTON, WY   CLOUDY    35  16  45 SW12      30.25S WCI  27
ROCK SPRINGS   CLOUDY    39  18  42 W21       30.18F WCI  29
KEMMERER       CLOUDY    37  21  52 W13       30.20S WCI  29

$$



USA.gov is the U.S. government's official web portal to all federal, state and local government web resources and services.